Temperature
26 26 26 26 26 26 25 25 25 24 23 22 22 21 21 20 19 19 18 18 17 17 16 16 16 16 16 15 15 15 15 15 15 15 14 14 14 14 14 14 14 14 14 14
26 26 26 25 25 25 25 25 25 24 23 23 22 21 20 20 19 19 18 17 17 16 16 16 16 16 15 15 15 15 15 14 14 14 14 14 14 14 14 14 14 13 13 13
25 26 25 24 25 25 25 25 25 24 23 22 21 21 20 20 19 18 17 17 16 16 16 16 16 15 15 15 15 15 14 14 14 14 14 13 13 13 13 13 13 13 13 13
25 25 23 24 26 26 25 25 25 24 23 22 21 20 20 19 18 17 17 16 16 16 15 15 15 15 15 15 15 14 14 14 13 13 13 13 13 13 13 13 13 13 13 13
24 24 24 24 25 25 24 23 24 23 23 22 21 20 19 18 18 17 16 16 15 15 15 15 15 14 14 14 14 14 14 13 13 13 13 13 13 13 12 12 12 12 12 12
24 23 24 24 25 25 24 22 24 23 22 21 20 19 18 18 17 16 16 15 15 15 14 14 14 14 14 14 14 13 13 13 12 12 12 12 12 12 12 12 12 12 12 12
22 23 24 24 24 23 22 22 23 23 22 21 20 19 18 17 16 16 15 15 14 14 14 14 13 13 13 13 13 13 12 12 12 12 12 12 12 12 12 12 12 12 12 12
23 23 23 23 23 23 23 23 22 22 21 20 19 18 17 16 15 15 14 14 14 13 13 13 13 13 12 12 12 12 12 12 12 11 11 12 11 11 11 11 11 11 11 11
23 22 22 22 22 22 22 22 21 21 20 19 18 17 16 15 15 14 14 14 13 13 13 12 12 12 12 12 12 11 11 11 11 11 11 11 11 11 11 11 10 10 10 10
23 22 21 21 21 20 20 20 20 20 19 18 17 16 16 15 14 14 13 13 13 13 12 12 12 11 11 11 11 11 11 10 10 10 11 11 10 10 10 10 10 10 10 10
22 22 21 20 20 19 19 19 19 19 18 17 17 16 15 15 14 14 13 13 12 12 12 12 11 11 11 11 11 10 10 10 10 10 10 10 10 10 10 9 9 9 9 9
21 22 21 20 19 19 18 18 18 17 17 16 16 15 15 14 14 13 13 12 12 12 12 11 11 11 11 10 10 10 10 9 9 9 9 9 9 9 9 9 9 9 9 9
21 21 20 19 19 18 18 17 17 16 16 16 15 15 14 14 13 13 12 12 12 11 11 11 11 10 10 10 10 10 9 9 9 9 9 9 8 8 8 8 8 8 8 8
20 19 19 18 18 17 17 16 16 16 15 15 14 14 14 13 13 12 12 12 11 11 11 11 10 10 10 10 9 9 9 9 8 8 8 8 8 8 8 8 8 8 8 8
18 18 18 17 17 16 16 15 15 15 14 14 14 13 13 13 12 12 11 11 11 11 10 10 10 10 10 9 9 9 8 8 8 8 8 7 7 7 7 7 7 7 7 7
18 17 17 16 16 16 15 15 15 14 14 14 13 13 12 12 12 11 11 11 11 10 10 10 10 10 9 9 9 8 8 8 8 7 7 7 7 7 7 7 7 7 7 7
17 17 16 16 15 15 15 15 14 14 13 13 12 12 12 11 11 11 11 10 10 10 10 10 10 9 9 9 8 8 8 7 7 7 7 7 7 7 6 6 6 6 6 6
16 16 16 15 15 15 14 14 14 13 13 12 12 12 11 11 11 10 10 10 10 10 10 9 9 9 8 8 8 7 7 7 7 7 6 6 6 6 6 6 6 6 6 6
15 15 15 15 14 14 14 13 13 13 12 12 11 11 11 11 10 10 10 10 9 9 9 9 9 8 8 8 7 7 7 6 6 6 6 6 6 6 6 5 5 5 5 5
14 14 14 14 13 13 13 12 12 12 12 11 11 11 10 10 10 10 9 9 9 9 9 8 8 8 7 7 7 7 6 6 6 5 5 5 5 5 5 5 5 5 5 5
13 13 13 13 12 12 12 12 12 11 11 11 11 10 10 10 10 9 9 9 9 8 8 8 8 7 7 7 6 6 6 5 5 5 5 5 5 5 5 4 4 4 4 4
12 12 12 12 12 12 11 11 11 11 11 10 10 10 9 9 9 9 9 8 8 8 8 7 7 7 6 6 6 6 5 5 5 5 5 5 4 4 4 4 4 4 4 4
11 11 11 11 11 11 11 11 11 10 10 10 10 9 9 9 8 8 8 8 8 7 7 7 6 6 6 6 5 5 5 5 5 5 4 4 4 4 4 4 3 3 3 3
11 11 11 11 10 10 10 10 10 10 9 9 9 9 8 8 8 8 8 7 7 7 7 6 6 6 5 5 5 5 5 5 4 4 4 4 4 3 3 3 3 3 3 3
10 10 10 10 10 10 10 9 9 9 9 8 8 8 8 8 8 7 7 7 7 6 6 6 6 5 5 5 5 5 4 4 4 4 4 4 3 3 3 3 3 2 2 2
9 9 9 9 9 9 9 9 8 8 8 8 8 7 7 7 7 7 6 6 6 6 6 6 5 5 5 5 5 4 4 4 4 4 3 3 3 3 3 2 2 2 2 2
8 8 8 8 8 8 8 8 8 8 8 7 7 7 7 6 6 6 6 6 6 5 5 5 5 5 5 4 4 4 4 3 3 3 3 3 3 2 2 2 2 2 2 2
Wind_Speed
1 1 1 3 4 4 4 4 1 5 10 11 10 9 8 7 6 6 5 5 5 4 3 3 2 2 3 2 2 2 2 2 3 4 3 3 4 4 5 6 8 7 6 6
4 4 3 4 5 5 3 2 2 5 6 9 10 9 7 7 6 5 5 5 5 4 4 4 4 3 4 4 3 2 2 2 2 4 4 3 4 4 5 6 7 7 7 7
6 6 6 8 9 8 6 5 5 5 6 12 11 9 7 7 6 5 5 5 4 4 4 4 5 4 4 4 4 3 3 3 2 3 4 4 5 5 5 6 6 6 7 7
5 6 8 2 4 4 5 4 4 5 10 11 9 7 6 7 6 5 5 4 3 4 4 4 5 5 5 5 5 4 4 4 4 3 4 4 5 6 6 6 6 6 7 7
6 7 5 5 6 6 5 5 6 7 10 10 10 7 6 6 6 5 5 4 3 3 4 5 6 7 7 6 6 6 5 5 5 5 5 5 6 6 6 6 7 6 7 7
6 7 5 4 10 7 4 5 8 9 10 10 10 6 5 6 6 6 5 4 3 3 4 5 5 6 6 6 6 7 7 7 6 6 6 6 6 6 6 6 7 7 7 7
9 7 1 8 11 8 5 3 9 10 10 10 7 3 6 8 7 5 4 3 3 3 3 4 5 5 5 6 7 7 7 7 7 7 7 7 6 5 6 6 6 7 8 7
8 8 4 11 9 5 4 7 8 8 8 7 7 8 8 7 6 5 4 3 2 2 2 3 4 4 5 5 6 6 6 7 7 7 8 7 6 6 6 6 7 7 7 7
2 2 7 6 5 6 6 7 7 6 7 8 8 8 7 6 5 4 3 2 2 1 1 2 3 4 5 6 6 7 7 7 7 8 7 6 6 5 6 6 5 6 6 6
0 6 7 6 6 5 4 4 5 5 7 7 6 7 6 5 4 3 3 2 1 0 1 2 3 3 4 5 6 7 7 7 7 7 7 7 6 5 5 5 6 6 6 7
5 3 5 6 6 6 5 4 4 4 5 6 5 5 4 4 3 3 2 2 1 1 2 3 3 3 4 5 6 7 7 7 7 6 7 7 6 6 7 6 6 8 7 7
4 4 4 6 7 8 7 6 5 5 5 5 4 4 4 3 3 2 2 1 1 1 2 3 4 4 4 4 5 7 7 6 5 6 6 6 7 8 9 10 13 14 13 13
3 0 2 4 6 7 7 6 6 5 5 4 3 3 3 2 2 2 2 2 2 2 3 4 4 5 4 4 5 6 7 7 6 6 6 7 7 7 8 9 12 13 14 15
0 1 2 4 5 6 6 6 5 5 4 4 3 3 2 2 1 2 2 2 3 3 4 4 5 5 5 5 5 6 7 7 7 6 6 7 7 8 8 9 9 8 9 13
4 4 4 4 5 6 6 6 6 6 5 4 3 3 2 2 2 2 3 3 3 4 5 5 5 5 5 5 6 7 6 5 6 6 7 7 8 8 8 9 9 9 8 9
6 6 6 7 7 8 8 8 7 6 5 5 4 3 3 2 3 3 3 3 4 5 5 6 6 6 5 5 6 6 5 9 9 7 8 8 8 8 8 8 9 8 8 8
9 9 9 9 9 9 8 7 6 5 5 5 4 3 3 3 4 4 4 5 5 6 6 6 6 5 5 5 6 6 6 7 11 9 7 7 8 8 9 9 9 9 9 10
8 7 7 8 8 8 7 7 6 5 5 4 4 4 4 5 5 5 5 6 6 6 6 6 5 5 6 6 6 6 6 6 7 7 8 8 9 9 9 9 10 12 10 10
5 5 5 5 5 5 5 5 5 5 4 4 4 5 5 6 6 5 6 6 7 7 6 5 6 6 6 7 7 5 6 7 8 8 9 11 11 9 9 9 10 11 11 10
4 4 4 4 5 4 4 4 4 4 4 4 5 5 6 6 5 6 6 7 6 5 4 4 5 6 7 6 7 5 7 8 9 9 9 9 9 10 10 10 10 11 11 11
4 3 4 4 4 5 5 5 5 5 5 5 5 6 6 6 6 6 6 6 6 5 5 5 5 5 5 6 8 7 8 8 9 9 9 9 10 10 10 11 11 11 11 11
4 4 4 4 4 5 5 5 5 5 5 5 6 6 6 6 6 6 7 6 6 6 4 4 5 6 7 9 7 8 8 9 9 9 9 9 10 10 10 11 11 11 10 10
4 4 5 5 6 6 5 5 5 5 6 6 6 6 6 6 5 5 7 5 4 5 4 4 6 10 12 9 7 8 9 10 9 9 8 9 9 9 10 11 10 10 10 10
5 5 5 5 5 6 7 6 6 5 5 5 6 6 6 5 5 5 5 6 6 6 5 7 11 13 12 7 8 9 9 9 8 8 9 9 8 9 9 10 10 10 10 12
6 6 6 5 6 5 6 5 5 5 5 5 5 6 5 4 5 5 5 5 7 7 6 8 13 14 9 8 8 8 8 9 10 9 8 8 9 9 9 9 10 10 10 10
6 5 5 6 5 4 4 4 4 4 4 4 4 4 4 4 5 4 4 6 8 8 7 6 7 9 7 7 7 8 8 9 10 9 8 8 9 9 9 9 12 10 10 10
7 6 5 5 4 4 4 4 4 4 4 4 5 4 4 4 5 5 6 6 6 7 6 6 6 6 6 7 7 7 7 8 8 8 8 8 8 9 9 11 10 9 9 9
Wind_Direction
212 89 144 177 195 226 265 282 284 129 141 150 146 137 130 123 113 104 92 82 75 65 54 45 42 25 22 12 6 2 13 350 329 323 328 325 322 318 323 322 316 310 316 317
236 197 210 230 224 222 233 248 149 134 127 131 133 132 135 132 121 108 93 78 67 52 38 23 24 21 18 2 356 347 356 345 329 325 328 320 315 313 315 310 307 313 314 309
252 207 213 235 218 211 211 199 193 190 144 135 138 144 146 133 123 114 97 79 60 46 36 18 13 15 11 359 347 346 354 346 330 324 321 316 313 308 300 296 294 300 302 298
256 223 237 131 94 156 188 190 178 138 134 142 140 135 126 121 120 112 101 87 63 43 32 17 14 13 8 4 355 357 2 346 332 324 317 313 306 297 290 292 294 288 287 289
262 254 231 177 163 162 175 191 167 148 141 140 135 133 129 120 116 110 101 93 75 41 31 21 19 10 1 2 4 7 4 347 338 331 316 302 294 289 286 289 289 287 284 283
262 258 262 143 139 143 171 197 168 158 150 149 155 174 166 134 118 108 95 86 79 51 32 22 12 4 358 356 3 2 354 341 333 322 308 297 290 287 286 282 279 284 284 281
253 258 235 119 128 144 191 178 148 153 153 161 175 147 127 130 121 113 102 89 79 64 42 20 4 358 357 356 352 345 338 329 319 312 305 295 288 290 292 289 287 283 284 281
225 241 213 139 155 175 126 109 128 137 145 148 125 111 116 122 123 122 115 105 88 65 41 13 360 353 351 347 337 331 325 319 312 308 306 308 297 290 293 296 295 290 287 290
208 114 95 124 111 92 104 125 128 133 132 131 131 133 130 132 133 133 131 124 109 76 18 350 354 356 340 333 329 325 323 319 313 312 311 309 307 304 300 295 291 293 295 295
228 144 146 137 124 114 103 107 111 123 133 139 141 143 143 144 146 146 148 142 136 121 321 328 344 342 331 328 326 324 322 320 317 319 321 323 320 308 302 299 296 293 294 293
251 186 150 168 167 154 146 139 134 129 131 138 141 149 150 154 157 157 155 151 166 237 295 308 319 316 321 327 326 320 318 320 321 319 317 316 312 308 304 292 286 289 290 292
237 209 203 179 168 164 166 169 162 152 146 145 152 159 160 164 159 157 169 187 214 243 274 295 307 310 318 322 318 317 318 321 319 314 311 312 311 310 303 294 292 287 281 281
278 9 92 123 149 160 173 176 167 162 161 160 158 157 162 162 160 167 193 235 257 264 269 286 297 301 306 310 311 310 311 314 315 315 315 309 307 306 307 305 297 292 289 288
104 132 176 166 163 164 174 176 170 170 173 173 168 163 166 181 191 203 224 250 269 278 278 282 288 291 295 302 303 302 306 309 310 305 305 304 302 301 300 302 304 301 297 293
221 217 200 175 169 170 175 180 185 188 186 181 169 174 185 205 225 241 247 255 269 276 281 284 287 288 289 296 298 300 302 299 300 298 295 295 295 296 296 296 295 297 300 301
213 205 190 189 189 187 190 194 195 195 191 186 183 192 203 221 240 250 253 256 265 272 278 281 283 285 289 295 296 294 288 292 296 295 293 293 294 294 294 294 295 295 295 296
213 210 198 196 198 197 198 197 199 200 198 197 196 199 213 229 244 251 255 258 263 269 271 275 279 285 293 295 294 290 288 292 295 295 291 292 293 294 295 294 296 296 292 289
222 217 207 201 197 196 197 198 203 207 209 209 206 210 221 235 246 253 259 265 270 273 275 280 290 296 296 293 291 289 292 291 292 294 295 293 294 294 294 296 297 296 295 291
213 209 200 195 196 198 198 202 207 211 212 214 222 228 234 243 251 259 267 269 270 273 274 282 294 295 294 290 294 288 289 292 295 294 293 294 294 291 292 293 294 296 298 297
193 192 191 194 195 204 210 210 216 220 218 221 230 239 245 250 256 264 268 266 263 264 272 292 298 293 289 291 299 294 292 290 292 293 293 292 293 293 293 294 295 295 296 296
186 190 201 209 210 216 219 219 222 224 223 224 233 244 250 255 258 264 267 268 268 270 276 279 277 279 285 301 301 291 289 288 288 289 289 291 293 294 294 296 296 296 296 295
204 202 213 225 231 234 231 230 232 233 234 235 240 246 252 256 260 264 263 262 265 268 267 268 272 282 297 304 291 285 283 284 285 286 285 288 291 292 293 296 297 296 297 297
237 231 228 232 239 246 245 242 241 240 238 239 243 247 251 254 255 260 268 265 269 271 271 271 279 289 296 296 288 285 283 283 284 287 289 289 290 293 295 296 296 296 298 298
268 262 254 248 247 247 248 249 248 245 243 245 244 246 251 254 255 254 261 270 271 273 269 271 278 285 288 283 280 281 283 285 286 287 290 290 290 292 294 296 297 297 297 297
272 268 263 259 255 252 254 254 254 251 248 246 250 252 255 252 256 262 266 275 278 275 271 277 283 285 279 277 280 283 287 289 292 295 293 294 293 294 293 292 293 295 295 293
272 269 266 264 263 261 262 259 253 246 243 248 251 253 257 261 266 269 267 271 275 277 274 272 273 273 273 277 282 286 289 294 295 293 292 295 296 297 296 296 295 294 293 291
266 264 256 252 251 249 253 257 261 261 256 255 259 260 263 266 269 272 276 276 276 272 269 269 271 275 278 281 284 287 290 295 296 294 295 296 296 295 294 294 294 294 293 292
Height
1478 1476 1477 1481 1484 1485 1487 1488 1494 1498 1502 1505 1508 1512 1516 1518 1520 1522 1523 1524 1524 1524 1524 1523 1523 1522 1521 1520 1519 1518 1517 1516 1515 1515 1514 1513 1511 1510 1508 1507 1506 1505 1504 1502
1480 1477 1479 1483 1483 1484 1487 1487 1491 1495 1501 1501 1506 1511 1515 1517 1520 1521 1523 1524 1524 1524 1523 1523 1522 1521 1520 1519 1518 1517 1516 1515 1514 1513 1512 1510 1509 1507 1506 1504 1503 1501 1500 1499
1484 1478 1482 1489 1481 1483 1485 1485 1489 1495 1498 1500 1506 1510 1513 1516 1518 1520 1522 1523 1523 1523 1523 1522 1521 1520 1519 1518 1517 1516 1515 1513 1512 1511 1509 1508 1506 1505 1503 1501 1500 1498 1496 1495
1481 1485 1497 1485 1473 1476 1481 1484 1485 1489 1494 1499 1504 1509 1512 1515 1517 1519 1520 1521 1522 1522 1522 1521 1520 1519 1518 1517 1515 1514 1513 1511 1510 1508 1507 1505 1503 1502 1500 1499 1497 1495 1493 1491
1482 1486 1483 1480 1475 1477 1483 1486 1485 1489 1494 1499 1504 1508 1512 1514 1516 1517 1519 1520 1520 1521 1520 1520 1519 1518 1516 1515 1514 1512 1511 1509 1507 1506 1504 1502 1500 1498 1497 1495 1493 1491 1489 1488
1482 1489 1489 1476 1471 1475 1481 1489 1484 1487 1493 1498 1502 1508 1510 1512 1514 1515 1517 1518 1518 1519 1518 1518 1517 1516 1515 1513 1512 1510 1508 1506 1505 1503 1501 1499 1497 1495 1493 1491 1489 1487 1485 1484
1486 1485 1477 1472 1473 1477 1491 1487 1482 1486 1491 1496 1499 1503 1506 1509 1511 1513 1514 1516 1516 1516 1516 1516 1515 1514 1512 1511 1510 1508 1506 1504 1502 1500 1498 1496 1494 1492 1490 1487 1485 1483 1481 1479
1480 1485 1482 1473 1475 1478 1480 1480 1482 1486 1491 1495 1498 1501 1504 1507 1509 1511 1512 1513 1514 1514 1514 1513 1512 1511 1510 1508 1507 1505 1503 1500 1498 1496 1494 1492 1490 1488 1486 1483 1481 1479 1476 1474
1469 1475 1472 1472 1474 1476 1478 1481 1484 1487 1491 1494 1497 1500 1503 1506 1508 1509 1510 1511 1511 1512 1511 1511 1510 1509 1507 1506 1504 1502 1499 1497 1495 1493 1491 1489 1486 1484 1481 1479 1477 1474 1472 1469
1467 1470 1471 1474 1476 1478 1480 1482 1484 1487 1490 1493 1496 1499 1501 1504 1506 1507 1508 1509 1509 1509 1509 1508 1508 1506 1504 1503 1501 1499 1496 1494 1492 1489 1487 1484 1482 1480 1478 1475 1473 1470 1468 1465
1467 1469 1471 1474 1475 1478 1480 1482 1485 1487 1489 1492 1494 1497 1499 1501 1503 1504 1506 1506 1506 1506 1506 1505 1504 1503 1501 1499 1497 1495 1493 1491 1488 1486 1483 1480 1478 1476 1473 1471 1469 1466 1463 1461
1467 1466 1468 1470 1473 1476 1479 1481 1484 1486 1488 1491 1493 1495 1497 1499 1500 1502 1503 1503 1503 1503 1503 1502 1501 1499 1498 1496 1494 1491 1489 1487 1484 1481 1479 1476 1473 1470 1468 1466 1464 1461 1459 1456
1463 1464 1466 1468 1471 1474 1477 1480 1482 1484 1486 1489 1491 1493 1494 1496 1497 1498 1499 1500 1500 1500 1499 1498 1497 1495 1494 1492 1490 1487 1485 1482 1480 1477 1474 1471 1468 1465 1461 1458 1457 1455 1452 1449
1462 1464 1466 1468 1470 1473 1475 1478 1480 1483 1485 1487 1488 1490 1492 1493 1494 1495 1496 1496 1496 1496 1495 1494 1493 1491 1490 1487 1485 1483 1481 1478 1475 1472 1469 1466 1463 1460 1457 1453 1449 1446 1445 1442
1461 1462 1464 1466 1468 1470 1473 1476 1478 1480 1482 1484 1485 1487 1488 1489 1490 1491 1492 1492 1492 1492 1491 1490 1488 1487 1485 1483 1480 1478 1476 1473 1470 1467 1464 1461 1458 1455 1452 1448 1444 1441 1437 1435
1458 1459 1461 1463 1465 1468 1470 1472 1475 1477 1479 1481 1482 1483 1485 1486 1487 1487 1488 1488 1488 1487 1486 1485 1483 1482 1480 1478 1475 1473 1470 1468 1465 1462 1459 1456 1453 1449 1446 1442 1439 1435 1431 1428
1454 1455 1457 1459 1462 1464 1467 1469 1471 1473 1475 1477 1478 1480 1481 1482 1483 1483 1483 1483 1483 1482 1481 1480 1478 1477 1475 1472 1470 1467 1465 1462 1459 1456 1453 1450 1447 1443 1440 1436 1432 1429 1425 1422
1449 1451 1453 1456 1458 1461 1463 1465 1468 1470 1471 1473 1475 1476 1477 1477 1478 1478 1478 1478 1477 1477 1476 1475 1473 1471 1469 1467 1464 1462 1459 1456 1453 1450 1447 1444 1440 1437 1433 1429 1425 1421 1417 1414
1445 1448 1450 1452 1455 1457 1460 1462 1464 1466 1467 1469 1470 1471 1472 1473 1473 1473 1473 1473 1472 1471 1469 1468 1467 1465 1463 1461 1459 1456 1453 1450 1447 1444 1441 1437 1434 1430 1426 1423 1419 1414 1410 1406
1443 1445 1447 1450 1452 1454 1456 1458 1460 1462 1463 1464 1465 1466 1467 1467 1468 1468 1467 1467 1466 1465 1464 1462 1460 1458 1456 1455 1452 1450 1447 1444 1440 1437 1434 1430 1427 1423 1419 1415 1411 1407 1403 1399
1441 1443 1445 1447 1449 1451 1453 1454 1456 1457 1458 1459 1460 1461 1461 1462 1462 1462 1461 1460 1460 1459 1457 1456 1454 1452 1450 1448 1446 1443 1440 1437 1434 1431 1427 1423 1420 1416 1412 1408 1403 1399 1395 1391
1440 1441 1443 1444 1446 1447 1449 1450 1451 1452 1453 1454 1455 1455 1456 1456 1455 1455 1455 1454 1453 1452 1451 1449 1447 1446 1444 1442 1439 1436 1433 1430 1427 1424 1420 1416 1412 1408 1404 1400 1396 1391 1387 1383
1438 1439 1440 1441 1442 1443 1445 1446 1446 1447 1448 1448 1449 1449 1449 1449 1449 1449 1448 1448 1447 1446 1444 1442 1441 1439 1437 1434 1432 1429 1426 1423 1420 1416 1413 1409 1405 1401 1397 1393 1388 1384 1379 1375
1435 1436 1437 1438 1438 1439 1440 1440 1441 1442 1442 1443 1443 1443 1443 1443 1443 1443 1442 1441 1440 1439 1437 1436 1434 1432 1430 1427 1425 1422 1419 1416 1413 1409 1405 1401 1397 1393 1389 1385 1380 1376 1372 1368
1432 1433 1433 1433 1434 1434 1435 1435 1436 1436 1437 1437 1437 1437 1437 1437 1437 1436 1436 1435 1434 1432 1431 1429 1427 1425 1423 1421 1418 1415 1412 1409 1406 1402 1398 1394 1390 1386 1381 1377 1373 1368 1364 1360
1429 1429 1429 1429 1429 1429 1430 1430 1430 1431 1431 1431 1431 1432 1431 1431 1430 1430 1429 1428 1427 1426 1424 1422 1421 1419 1416 1414 1411 1409 1405 1402 1398 1395 1391 1387 1383 1378 1374 1370 1365 1361 1357 1353
1424 1424 1424 1424 1424 1425 1425 1425 1425 1425 1426 1426 1426 1426 1425 1425 1424 1423 1423 1421 1420 1419 1417 1416 1414 1412 1410 1407 1405 1402 1398 1395 1392 1388 1384 1380 1376 1371 1367 1362 1358 1354 1350 1346